Location: Heppenheim
(49.6410°N, 8.6370°E)
Time: 12:56:42
(UTC+01:00)

ISS - Visible Passes

Search period start: 03 December 2022 00:00
Search period end: 13 December 2022 00:00
Orbit: 414 x 420 km, 51.6° (Epoch: 03 December)

Date Brightness Start Highest point End Pass type
(mag) Time Alt. Az. Time Alt. Az. Time Alt. Az.
03 Dec -3.6 17:51:33 10° WNW 17:54:53 70° SSW 17:57:24 16° ESE visible
03 Dec -0.8 19:28:59 10° W 19:30:21 15° WSW 19:30:21 15° WSW visible
04 Dec -3.8 17:03:24 10° WNW 17:06:46 89° NNE 17:10:07 10° ESE visible
04 Dec -1.6 18:40:28 10° W 18:43:16 24° SW 18:44:44 18° S visible
05 Dec -2.2 17:52:09 10° W 17:55:15 36° SSW 17:58:20 10° SE visible
06 Dec -2.9 17:03:53 10° WNW 17:07:10 52° SSW 17:10:25 10° SE visible
06 Dec -0.5 18:42:10 10° WSW 18:43:19 11° SW 18:44:27 10° SSW visible
07 Dec -0.8 17:53:03 10° W 17:55:21 17° SW 17:57:38 10° S visible
08 Dec -1.3 17:04:28 10° W 17:07:19 25° SW 17:10:08 10° SSE visible
10 Dec -0.2 17:05:51 10° WSW 17:07:11 12° SW 17:08:31 10° SSW visible
